Location: Doughton Park
(36.4224°N, 81.1835°W)
Time: 22:59:13
(UTC-04:00)

ISS - All Passes

Search period start: 29 May 2016 00:00
Search period end: 08 June 2016 00:00
Orbit: 402 x 404 km, 51.6° (Epoch: 29 May)

Date Brightness Start Highest point End Pass type
(mag) Time Alt. Az. Time Alt. Az. Time Alt. Az.
29 May - 03:49:08 10° NNW 03:52:01 28° NNE 03:54:53 10° E visible
29 May - 05:25:39 10° WNW 05:28:23 25° SW 05:31:06 10° S visible
29 May - 20:26:48 10° SSW 20:29:43 30° SE 20:32:38 10° ENE daylight
29 May - 22:03:26 10° W 22:06:10 24° NNW 22:08:55 10° NNE visible
30 May - 02:56:48 10° NNW 02:59:05 17° NNE 03:01:21 10° ENE visible
30 May - 04:32:33 10° WNW 04:35:45 54° SW 04:38:55 10° SE visible
30 May - 19:35:12 10° SSE 19:37:08 15° SE 19:39:04 10° E daylight
30 May - 21:10:09 10° WSW 21:13:17 44° NW 21:16:27 10° NE visible
31 May - 02:04:47 10° N 02:06:03 12° NNE 02:07:19 10° NE visible
31 May - 03:39:46 10° NW 03:43:01 67° NE 03:46:14 10° ESE visible
31 May - 20:17:15 10° SW 20:20:30 87° SE 20:23:47 10° NE daylight
31 May - 21:55:34 10° WNW 21:57:20 14° NNW 21:59:08 10° N visible
01 Jun - 02:47:11 10° NNW 02:50:11 33° NE 02:53:11 10° ESE visible
01 Jun - 04:23:59 10° W 04:26:28 20° SW 04:28:56 10° S night (unlit)
01 Jun - 19:24:45 10° SSW 19:27:48 38° SE 19:30:52 10° ENE daylight
01 Jun - 21:01:46 10° W 21:04:20 21° NNW 21:06:55 10° NNE visible
02 Jun - 01:54:46 10° NNW 01:57:16 20° NNE 01:59:45 10° E visible
02 Jun - 03:30:44 10° WNW 03:33:50 42° SW 03:36:56 10° SSE night (unlit)
02 Jun - 18:32:51 10° S 18:35:11 18° SE 18:37:32 10° E daylight
02 Jun - 20:08:23 10° WSW 20:11:25 36° NW 20:14:29 10° NNE daylight
03 Jun - 01:02:36 10° N 01:04:15 13° NNE 01:05:52 10° NE visible
03 Jun - 02:37:51 10° NW 02:41:07 84° NE 02:44:22 10° SE night (unlit)
03 Jun - 19:15:21 10° SW 19:18:36 75° NW 19:21:52 10° NE daylight
03 Jun - 20:54:04 10° NW 20:55:31 12° NNW 20:56:58 10° N daylight
04 Jun - 01:45:12 10° NW 01:48:19 40° NE 01:51:24 10° ESE visible
04 Jun - 03:22:23 10° W 03:24:30 16° SW 03:26:37 10° S night (unlit)
04 Jun - 18:22:43 10° SSW 18:25:51 49° SE 18:29:02 10° ENE daylight
04 Jun - 20:00:06 10° WNW 20:02:29 18° NNW 20:04:52 10° NNE daylight
05 Jun - 00:52:44 10° NNW 00:55:24 23° NNE 00:58:04 10° E visible
05 Jun - 02:28:54 10° WNW 02:31:53 33° SW 02:34:51 10° SSE night (unlit)
05 Jun - 17:30:35 10° S 17:33:12 23° SE 17:35:50 10° ENE daylight
05 Jun - 19:06:35 10° W 19:09:32 30° NW 19:12:29 10° NNE daylight
06 Jun - 00:00:27 10° N 00:02:24 15° NNE 00:04:20 10° ENE visible
06 Jun - 01:35:55 10° NW 01:39:11 77° SW 01:42:25 10° SE visible
06 Jun - 16:39:41 10° SE 16:40:37 11° SE 16:41:34 10° ESE daylight
06 Jun - 18:13:26 10° WSW 18:16:40 59° NW 18:19:54 10° NE daylight
06 Jun - 19:52:39 10° NW 19:53:41 11° NNW 19:54:41 10° N daylight
06 Jun - 23:08:57 10° NNE 23:09:18 10° NNE 23:09:40 10° NNE visible
07 Jun - 00:43:12 10° NW 00:46:23 49° NE 00:49:33 10° ESE visible
07 Jun - 02:20:52 10° W 02:22:30 13° SW 02:24:07 10° SSW night (unlit)
07 Jun - 17:20:40 10° SW 17:23:53 62° SE 17:27:07 10° NE daylight
07 Jun - 18:58:26 10° WNW 19:00:35 16° NNW 19:02:45 10° NNE daylight
07 Jun - 23:50:40 10° NNW 23:53:30 26° NNE 23:56:18 10° E visible
